TimeEDT,TemperatureF,Dew PointF,Humidity,Sea Level PressureIn,VisibilityMPH,Wind Direction,Wind SpeedMPH,Gust SpeedMPH,PrecipitationIn,Events,Conditions,WindDirDegrees,DateUTC
12:16 AM,59.0,59.0,100,30.03,3.0,North,4.6,-,N/A,,Overcast,350,2012-10-10 04:16:00
12:53 AM,59.0,59.0,100,30.02,5.0,North,6.9,-,N/A,,Overcast,350,2012-10-10 04:53:00
1:30 AM,59.0,59.0,100,30.02,2.0,NNW,6.9,-,N/A,,Overcast,340,2012-10-10 05:30:00
1:40 AM,59.0,59.0,100,30.01,1.5,North,4.6,-,N/A,,Overcast,350,2012-10-10 05:40:00
1:53 AM,59.0,59.0,100,30.01,0.8,NNW,3.5,-,N/A,,Overcast,340,2012-10-10 05:53:00
2:53 AM,59.0,59.0,100,30.00,0.5,North,4.6,-,N/A,Fog,Fog,350,2012-10-10 06:53:00
3:15 AM,57.2,57.2,100,29.98,0.2,NW,4.6,-,N/A,Fog,Fog,320,2012-10-10 07:15:00
3:53 AM,57.9,57.9,100,29.99,0.2,North,3.5,-,N/A,Fog,Fog,350,2012-10-10 07:53:00
4:21 AM,57.2,57.2,100,29.98,0.5,NNW,3.5,-,N/A,Fog,Fog,330,2012-10-10 08:21:00
4:53 AM,57.9,57.9,100,29.98,0.5,NNW,3.5,-,N/A,Fog,Fog,340,2012-10-10 08:53:00
5:29 AM,57.2,57.2,100,29.98,1.0,NW,3.5,-,N/A,,Mist,320,2012-10-10 09:29:00
5:38 AM,57.2,57.2,100,29.98,0.8,NW,3.5,-,N/A,,Mist,320,2012-10-10 09:38:00
5:53 AM,57.9,57.9,100,29.99,1.0,West,4.6,-,N/A,,Overcast,270,2012-10-10 09:53:00
6:31 AM,57.2,57.2,100,29.99,2.5,WNW,5.8,-,0.00,,Overcast,290,2012-10-10 10:31:00
6:42 AM,57.2,57.2,100,29.98,1.2,NW,4.6,-,0.00,,Overcast,320,2012-10-10 10:42:00
6:53 AM,57.9,57.9,100,29.98,1.5,NW,6.9,-,0.00,,Overcast,320,2012-10-10 10:53:00
7:10 AM,57.2,57.2,100,29.98,2.0,Variable,4.6,-,N/A,,Overcast,0,2012-10-10 11:10:00
7:37 AM,57.2,57.2,100,29.99,1.8,NW,4.6,-,N/A,,Overcast,310,2012-10-10 11:37:00
7:53 AM,57.0,57.0,100,29.99,2.0,West,4.6,-,N/A,,Overcast,280,2012-10-10 11:53:00
8:19 AM,57.2,57.2,100,29.99,1.5,Calm,Calm,-,N/A,,Overcast,0,2012-10-10 12:19:00
8:32 AM,57.2,57.2,100,29.99,3.0,WNW,3.5,-,N/A,,Overcast,290,2012-10-10 12:32:00
8:53 AM,57.9,57.9,100,30.00,5.0,West,3.5,-,N/A,,Overcast,260,2012-10-10 12:53:00
9:01 AM,57.2,57.2,100,30.00,5.0,West,5.8,-,N/A,,Overcast,280,2012-10-10 13:01:00
9:35 AM,60.8,59.0,94,29.99,7.0,West,5.8,-,N/A,,Overcast,280,2012-10-10 13:35:00
9:44 AM,62.6,60.8,94,29.98,9.0,WNW,4.6,-,N/A,,Mostly Cloudy,290,2012-10-10 13:44:00
9:53 AM,62.1,59.0,90,29.98,10.0,NW,6.9,-,N/A,,Mostly Cloudy,310,2012-10-10 13:53:00
10:17 AM,64.4,60.8,88,29.98,10.0,Variable,5.8,-,N/A,,Mostly Cloudy,0,2012-10-10 14:17:00
10:53 AM,64.9,59.0,81,29.97,10.0,West,5.8,-,N/A,,Mostly Cloudy,280,2012-10-10 14:53:00
11:09 AM,64.4,57.2,77,29.97,10.0,WSW,8.1,-,N/A,,Scattered Clouds,250,2012-10-10 15:09:00
11:53 AM,66.9,57.0,70,29.96,10.0,West,8.1,-,N/A,,Scattered Clouds,280,2012-10-10 15:53:00
12:53 PM,68.0,57.9,70,29.93,10.0,WSW,8.1,-,N/A,,Mostly Cloudy,250,2012-10-10 16:53:00
1:53 PM,69.1,55.9,63,29.91,10.0,West,8.1,19.6,N/A,,Mostly Cloudy,270,2012-10-10 17:53:00
2:53 PM,66.0,53.1,63,29.90,10.0,West,9.2,-,N/A,,Mostly Cloudy,280,2012-10-10 18:53:00
3:53 PM,66.9,53.1,61,29.89,10.0,West,6.9,-,N/A,,Mostly Cloudy,270,2012-10-10 19:53:00
4:53 PM,66.0,51.1,59,29.89,10.0,West,6.9,-,N/A,,Partly Cloudy,280,2012-10-10 20:53:00
5:53 PM,63.0,52.0,67,29.91,10.0,West,5.8,-,N/A,,Partly Cloudy,260,2012-10-10 21:53:00
6:53 PM,59.0,53.1,81,29.93,10.0,West,3.5,-,N/A,,Clear,260,2012-10-10 22:53:00
7:53 PM,55.9,53.1,90,29.95,10.0,SW,3.5,-,N/A,,Clear,220,2012-10-10 23:53:00
8:53 PM,57.0,53.1,87,29.96,10.0,SW,4.6,-,N/A,,Clear,230,2012-10-11 00:53:00
9:53 PM,57.0,54.0,89,29.97,10.0,WSW,4.6,-,N/A,,Scattered Clouds,240,2012-10-11 01:53:00
10:53 PM,57.9,55.0,90,30.00,10.0,West,5.8,-,N/A,,Overcast,270,2012-10-11 02:53:00
11:53 PM,59.0,51.1,75,30.04,10.0,NW,9.2,-,N/A,,Overcast,320,2012-10-11 03:53:00